TimeCST,TemperatureF,Dew PointF,Humidity,Sea Level PressureIn,VisibilityMPH,Wind Direction,Wind SpeedMPH,Gust SpeedMPH,PrecipitationIn,Events,Conditions,WindDirDegrees,DateUTC
12:01 AM,-2.2,-7.6,78,29.49,10.0,East,3.5,-,N/A,,Overcast,80,2014-01-26 06:01:00
12:21 AM,-2.2,-7.6,78,29.49,10.0,East,3.5,-,N/A,,Overcast,80,2014-01-26 06:21:00
12:41 AM,-2.2,-7.6,78,29.48,10.0,ESE,4.6,-,N/A,,Overcast,120,2014-01-26 06:41:00
1:01 AM,-2.2,-7.6,78,29.46,10.0,ESE,3.5,-,N/A,,Overcast,110,2014-01-26 07:01:00
1:21 AM,-2.2,-7.6,78,29.45,10.0,SE,3.5,-,N/A,,Overcast,130,2014-01-26 07:21:00
2:01 AM,-2.2,-7.6,78,29.45,7.0,SE,2.3,-,N/A,,Overcast,130,2014-01-26 08:01:00
2:21 AM,-2.2,-7.6,78,29.43,5.0,ESE,1.2,-,N/A,,Overcast,110,2014-01-26 08:21:00
2:41 AM,-2.2,-7.6,78,29.42,5.0,ESE,2.3,-,N/A,,Overcast,110,2014-01-26 08:41:00
3:01 AM,-2.2,-7.6,78,29.42,3.0,East,2.3,-,N/A,,Overcast,100,2014-01-26 09:01:00
3:21 AM,-2.2,-7.6,78,29.40,4.0,East,4.6,-,N/A,,Overcast,100,2014-01-26 09:21:00
3:41 AM,-2.2,-7.6,78,29.41,5.0,ESE,1.2,-,N/A,,Overcast,120,2014-01-26 09:41:00
4:01 AM,-2.2,-7.6,78,29.40,4.0,SE,2.3,-,N/A,,Overcast,130,2014-01-26 10:01:00
4:21 AM,-2.2,-7.6,78,29.39,1.2,East,1.2,-,N/A,,Overcast,90,2014-01-26 10:21:00
4:41 AM,-2.2,-7.6,78,29.38,1.2,ENE,2.3,-,N/A,,Overcast,60,2014-01-26 10:41:00
5:01 AM,-2.2,-7.6,78,29.37,1.5,East,3.5,-,N/A,,Overcast,80,2014-01-26 11:01:00
5:21 AM,-2.2,-7.6,78,29.37,1.8,ENE,1.2,-,N/A,,Overcast,60,2014-01-26 11:21:00
5:41 AM,-2.2,-7.6,78,29.36,1.5,East,2.3,-,N/A,,Overcast,80,2014-01-26 11:41:00
6:01 AM,-2.2,-7.6,78,29.37,2.0,NE,1.2,-,N/A,,Overcast,40,2014-01-26 12:01:00
6:21 AM,-2.2,-7.6,78,29.36,1.8,ENE,1.2,-,N/A,,Overcast,60,2014-01-26 12:21:00
6:41 AM,-2.2,-7.6,78,29.36,3.0,ENE,1.2,-,N/A,,Overcast,60,2014-01-26 12:41:00
7:01 AM,-2.2,-7.6,78,29.36,4.0,NNE,2.3,-,N/A,,Overcast,20,2014-01-26 13:01:00
7:21 AM,-2.2,-7.6,78,29.36,3.0,NNE,2.3,-,N/A,,Overcast,20,2014-01-26 13:21:00
7:41 AM,-2.2,-7.6,78,29.36,3.0,NNW,1.2,-,N/A,,Overcast,330,2014-01-26 13:41:00
8:01 AM,-2.2,-7.6,78,29.35,3.0,NNW,5.8,-,N/A,,Overcast,340,2014-01-26 14:01:00
8:21 AM,-2.2,-7.6,78,29.37,3.0,NNW,4.6,-,N/A,,Overcast,330,2014-01-26 14:21:00
8:41 AM,-2.2,-7.6,78,29.38,3.0,NNW,4.6,-,N/A,,Overcast,330,2014-01-26 14:41:00
9:01 AM,-2.2,-7.6,78,29.40,4.0,NNW,4.6,-,N/A,,Overcast,330,2014-01-26 15:01:00
9:21 AM,-2.2,-7.6,78,29.40,7.0,NW,6.9,-,N/A,,Mostly Cloudy,310,2014-01-26 15:21:00
9:41 AM,-2.2,-7.6,78,29.41,3.0,NNW,8.1,-,N/A,,Mostly Cloudy,330,2014-01-26 15:41:00
10:01 AM,-2.2,-7.6,78,29.43,0.8,NNW,13.8,-,N/A,,Overcast,330,2014-01-26 16:01:00
10:21 AM,-0.4,-7.6,72,29.44,0.8,NNW,12.7,18.4,N/A,,Overcast,340,2014-01-26 16:21:00
10:41 AM,-2.2,-7.6,78,29.47,0.5,NNW,12.7,20.7,N/A,,Overcast,330,2014-01-26 16:41:00
11:01 AM,-2.2,-9.4,71,29.49,0.8,NNW,13.8,21.9,N/A,,Overcast,330,2014-01-26 17:01:00
11:21 AM,-2.2,-9.4,71,29.50,0.8,NNW,17.3,23.0,N/A,,Overcast,340,2014-01-26 17:21:00
11:41 AM,-2.2,-9.4,71,29.52,0.8,NNW,18.4,23.0,N/A,,Overcast,330,2014-01-26 17:41:00
12:01 PM,-2.2,-9.4,71,29.54,1.0,NNW,17.3,23.0,N/A,,Overcast,330,2014-01-26 18:01:00
12:21 PM,-2.2,-9.4,71,29.56,1.2,NNW,12.7,27.6,N/A,,Mostly Cloudy,330,2014-01-26 18:21:00
12:41 PM,-2.2,-9.4,71,29.58,1.2,NNW,12.7,28.8,N/A,,Mostly Cloudy,330,2014-01-26 18:41:00
1:01 PM,-2.2,-9.4,71,29.60,1.2,NW,15.0,23.0,N/A,,Overcast,320,2014-01-26 19:01:00
1:21 PM,-2.2,-9.4,71,29.61,0.8,NNW,12.7,24.2,N/A,,Overcast,330,2014-01-26 19:21:00
1:41 PM,-2.2,-9.4,71,29.63,0.8,NNW,15.0,24.2,N/A,,Overcast,330,2014-01-26 19:41:00
2:21 PM,-2.2,-9.4,71,29.67,0.8,NW,20.7,27.6,N/A,,Overcast,310,2014-01-26 20:21:00
2:41 PM,-2.2,-9.4,71,29.69,0.5,NW,23.0,29.9,N/A,,Overcast,310,2014-01-26 20:41:00
3:01 PM,-2.2,-11.2,66,29.72,1.5,NW,18.4,24.2,N/A,,Mostly Cloudy,320,2014-01-26 21:01:00
3:21 PM,-2.2,-11.2,66,29.74,0.8,NW,17.3,26.5,N/A,,Overcast,310,2014-01-26 21:21:00
3:41 PM,-4.0,-11.2,71,29.76,1.0,NW,20.7,29.9,N/A,,Overcast,320,2014-01-26 21:41:00
4:01 PM,-4.0,-11.2,71,29.78,1.0,NW,16.1,31.1,N/A,,Overcast,310,2014-01-26 22:01:00
4:21 PM,-5.8,-13.0,71,29.80,0.5,WNW,23.0,32.2,N/A,,Overcast,300,2014-01-26 22:21:00
4:41 PM,-7.6,-14.8,71,29.83,0.2,NW,26.5,38.0,N/A,,Overcast,310,2014-01-26 22:41:00
5:01 PM,-9.4,-16.6,71,29.85,0.5,NW,25.3,32.2,N/A,,Overcast,310,2014-01-26 23:01:00
5:21 PM,-9.4,-16.6,71,29.87,1.0,NW,25.3,31.1,N/A,,Overcast,310,2014-01-26 23:21:00
5:46 PM,-11.2,-18.4,70,29.89,0.8,NW,24.2,33.4,N/A,,Overcast,310,2014-01-26 23:46:00
6:16 PM,-13.0,-20.2,70,29.92,1.8,NW,19.6,31.1,N/A,,Mostly Cloudy,310,2014-01-27 00:16:00
6:21 PM,-13.0,-20.2,70,29.92,2.0,WNW,20.7,29.9,N/A,,Mostly Cloudy,300,2014-01-27 00:21:00
6:41 PM,-14.8,-20.2,77,29.94,1.0,NW,19.6,32.2,N/A,,Overcast,310,2014-01-27 00:41:00
7:01 PM,-14.8,-22.0,70,29.96,1.2,NW,21.9,33.4,N/A,,Mostly Cloudy,310,2014-01-27 01:01:00
7:41 PM,-14.8,-23.8,64,29.98,2.0,NW,19.6,28.8,N/A,,Mostly Cloudy,320,2014-01-27 01:41:00
8:01 PM,-16.6,-23.8,70,30.00,2.5,NW,17.3,27.6,N/A,,Scattered Clouds,320,2014-01-27 02:01:00
8:41 PM,-16.6,-25.6,64,30.03,4.0,NW,18.4,26.5,N/A,,Clear,310,2014-01-27 02:41:00
9:01 PM,-16.6,-25.6,64,30.04,7.0,NW,17.3,23.0,N/A,,Clear,310,2014-01-27 03:01:00
9:21 PM,-16.6,-25.6,64,30.05,4.0,NW,16.1,24.2,N/A,,Clear,310,2014-01-27 03:21:00
9:41 PM,-16.6,-25.6,64,30.06,10.0,NW,13.8,19.6,N/A,,Clear,310,2014-01-27 03:41:00
10:01 PM,-16.6,-25.6,64,30.06,7.0,WNW,15.0,-,N/A,,Clear,300,2014-01-27 04:01:00
10:21 PM,-16.6,-25.6,64,30.07,7.0,NW,16.1,21.9,N/A,,Clear,310,2014-01-27 04:21:00
10:41 PM,-16.6,-25.6,64,30.08,7.0,NW,17.3,23.0,N/A,,Clear,310,2014-01-27 04:41:00
11:01 PM,-16.6,-25.6,64,30.09,7.0,NW,17.3,24.2,N/A,,Clear,310,2014-01-27 05:01:00
11:21 PM,-16.6,-25.6,64,30.10,10.0,WNW,12.7,20.7,N/A,,Clear,300,2014-01-27 05:21:00
11:41 PM,-18.4,-25.6,70,30.10,7.0,WNW,17.3,23.0,N/A,,Clear,300,2014-01-27 05:41:00